Regional Weather Roundup
Issued by NWS

Home | Current Version | Previous Version | Graphics & Text | Print | Product List | Glossary On
Versions: 1 2 3 4 5 6 7 8 9 10 11 12 13 14 15 16 17 18 19 20 21 22 23 24 25 26 27 28 29 30 31 32 33 34 35 36 37 38 39 40 41 42 43 44 45 46 47 48 49 50
000
ASUS43 KLOT 290106
RWRIL

ILLINOIS REGIONAL WEATHER ROUNDUP
NATIONAL WEATHER SERVICE CHICAGO/ROMEOVILLE IL
800 PM CDT THU AUG 28 2014

NOTE: "FAIR" INDICATES FEW OR NO CLOUDS BELOW 12,000 FEET WITH NO
SIGNIFICANT WEATHER AND/OR OBSTRUCTIONS TO VISIBILITY.

* THESE STATIONS ARE NOT UNDER NWS QUALITY CONTROL. THEY ALSO MAY NOT
  REPORT WEATHER SUCH AS PRECIPITATION OR FOG.

ILZ001-002-007-009-015-016-024-290200-
NORTHWEST ILLINOIS

CITY           SKY/WX    TMP DP  RH WIND       PRES   REMARKS
MOLINE         CLOUDY    69  67  93 E8        29.96F
STERLING*      CLOUDY    66  64  94 SE8       30.00F
SAVANNA*       CLOUDY    68  65  89 E6        29.99S
$$

ILZ003-004-008-010-011-017-018-290200-
NORTH CENTRAL ILLINOIS

CITY           SKY/WX    TMP DP  RH WIND       PRES   REMARKS
ROCKFORD       CLOUDY    65  60  84 E9        30.04F
FREEPORT*      CLOUDY    64  61  90 E9        30.04S
ROCHELLE*      RAIN      67  65  94 SE10      30.03F
DE KALB*       HVY RAIN  64  61  90 E7        30.06F
PERU*          DRIZZLE   68  67  94 E10       30.03F
$$

ILZ005-006-012>014-019>023-290200-
NORTHEAST ILLINOIS

CITY           SKY/WX    TMP DP  RH WIND       PRES   REMARKS
CHICAGO-OHARE  CLOUDY    71  58  63 E8        30.05S
CHICAGO-MIDWAY LGT RAIN  74  64  71 E12       30.04F
AURORA         LGT RAIN  69  62  78 CALM      30.06R
LANSING*       MOCLDY    71  64  78 NE5       30.05S
JOLIET*        CLOUDY    72  61  68 E8        30.06R
WAUKEGAN       CLOUDY    67  60  78 E5        30.05S
DUPAGE AIRPORT CLOUDY    69  61  75 E5        30.05S
KANKAKEE*      MOCLDY    72  66  81 E3        30.04S
WHEELING       CLOUDY    70  61  73 E3        30.07S
MORRIS*        HVY RAIN  71  67  89 NW15      30.07R
ROMEOVILLE*    DRIZZLE   71  62  73 E9        30.05R
NORTHERLY ISL    N/A     71  64  78 E7          N/A
$$

LMZ740>746-290200-
SOUTHERN LAKE MICHIGAN

STATION/POSITION SKY/WX   TEMP    WIND        PRES    VSBY  WAVE
                          AIR SEA DIR/SP/G                  HT/PER
                          (F)     (DEG/KT/KT) (MB)    (MI)  (FT/S)
SOUTHERN BUOY              69 69   60/ 12/ 14 1018.1F
WAUKEGAN HARBOR            69     100/  8/ 10   N/A
HARRISON CRIB              70      70/ 11/ 12   N/A
BURNHAM HARBOR             71      70/  8/  9   N/A
CALUMET HARBOR             71      50/  7/  9 1016.5S
MICHIGAN CITY              70      30/  8/  9   N/A
MICHIGAN CITY 6N           72 73   60/  8/ 10   N/A           2/ 3
ST. JOSEPH                 73 72   80/  8/ 10   N/A           1/ 3
$$

ILZ025>027-034>036-040-047-049-050-058-095>099-290200-
WEST-CENTRAL ILLINOIS

CITY           SKY/WX    TMP DP  RH WIND       PRES   REMARKS
QUINCY         MOCLDY    74  70  87 E8        29.95R
GALESBURG*     CLOUDY    70  68  94 E9        29.97S
MACOMB*        CLOUDY    70  70 100 SE6       30.00R
JACKSONVILLE*  MOCLDY    76  70  81 N9        29.99S
PITTSFIELD*    MOCLDY    77  69  76 NE7       29.96F
$$

ILZ028>032-037-038-041>044-048-051>054-059>061-290200-
CENTRAL ILLINOIS

CITY           SKY/WX    TMP DP  RH WIND       PRES   REMARKS
PONTIAC        CLOUDY    75  70  83 E3        30.03R
DECATUR        MOCLDY    76  72  87 E7        30.00S
PEORIA         LGT RAIN  72  69  90 E5        30.01S
LACON*         RAIN      70  67  90 E8        30.01R
LINCOLN*       TSTM      76  72  89 NW8       29.97S
SPRINGFIELD    TSTM      74  71  91 N21G33    30.05R VSB 3/4
TAYLORVILLE      N/A     79  73  83 SE7       29.98S HX  82
$$

ILZ033-039-045-046-055>057-062-063-290200-
EAST-CENTRAL ILLINOIS

CITY           SKY/WX    TMP DP  RH WIND       PRES   REMARKS
CHAMPAIGN      MOCLDY    74  70  87 E6        30.03R
DANVILLE*      PTCLDY    73  69  86 NE3       30.01R
RANTOUL*       MOCLDY    76  66  69 E5        30.04R
MATTOON        PTCLDY    77  71  82 SE5       30.01R
PARIS*         PTCLDY    73  70  90 CALM      30.03R
$$

ILZ079-100>102-290200-
SOUTHWEST ILLINOIS

CITY           SKY/WX    TMP DP  RH WIND       PRES   REMARKS
ALTON          CLOUDY    73  70  88 E7        29.99R
BELLEVILLE     CLOUDY    75  75  99 E5        29.98S
SPARTA*        LGT RAIN  74  73  94 CALM      30.00F
$$

ILZ064>066-069>071-074>076-080>082-084>086-088>090-092>094-290200-
SOUTH-CENTRAL ILLINOIS

CITY           SKY/WX    TMP DP  RH WIND       PRES   REMARKS
CARBONDALE     CLOUDY    74  70  87 CALM      29.99R
CAIRO*         CLOUDY    76  73  88 E3        29.98S FOG
EFFINGHAM*     TSTM      78  68  70 SW8       30.02R HX  80
MARION         CLOUDY    75  72  88 CALM      30.00R
MT. VERNON     CLOUDY    75  68  78 CALM      30.02R
CENTRALIA*     CLOUDY    74  71  90 CALM      30.02R
SALEM*         RAIN      75  74  95 CALM      30.03R
METROPOLIS*    CLOUDY    72  72 100 CALM      29.99R FOG
$$

ILZ067-068-072-073-078-083-087-091-290200-
SOUTHEAST ILLINOIS

CITY           SKY/WX    TMP DP  RH WIND       PRES   REMARKS
LAWRENCEVILLE  MOCLDY    79  74  84 E3        30.00R HX  82
FLORA*         MOCLDY    77  71  81 W7        30.02R
FAIRFIELD*     CLOUDY    77  73  88 CALM      30.00S
HARRISBURG*    CLOUDY    73  73 100 CALM      30.01R FOG
ROBINSON*      MOCLDY    79  74  86 NE3       30.01R HX  82
CARMI*         CLOUDY    76  71  84 E3        30.01R
$$

ABBREVIATIONS USED IN REMARKS
   TC - TEMPERATURE IN CELSIUS
  WCI - WIND CHILL INDEX
   HX - HEAT INDEX
  VSB - VISIBILITY
$$



USA.gov is the U.S. government's official web portal to all federal, state and local government web resources and services.